Index of /20260501/WXO-DD/model_rdps/10km/12/009
Name Last modified Size Description
Parent Directory -
20260501T12Z_MSC_RDPS_AbsoluteVorticity_IsbL-0250_RLatLon0.09_PT009H.grib2 2026-05-01 14:59 621K
20260501T12Z_MSC_RDPS_AbsoluteVorticity_IsbL-0500_RLatLon0.09_PT009H.grib2 2026-05-01 14:59 555K
20260501T12Z_MSC_RDPS_AbsoluteVorticity_IsbL-0700_RLatLon0.09_PT009H.grib2 2026-05-01 14:59 624K
20260501T12Z_MSC_RDPS_AbsoluteVorticity_IsbL-0850_RLatLon0.09_PT009H.grib2 2026-05-01 14:59 776K
20260501T12Z_MSC_RDPS_AirTemp_AGL-120m_RLatLon0.09_PT009H.grib2 2026-05-01 14:59 389K
20260501T12Z_MSC_RDPS_AirTemp_AGL-2m_RLatLon0.09_PT009H.grib2 2026-05-01 14:59 622K
20260501T12Z_MSC_RDPS_AirTemp_AGL-40m_RLatLon0.09_PT009H.grib2 2026-05-01 14:59 399K
20260501T12Z_MSC_RDPS_AirTemp_AGL-80m_RLatLon0.09_PT009H.grib2 2026-05-01 14:59 394K
20260501T12Z_MSC_RDPS_AirTemp_IsbL-0001_RLatLon0.09_PT009H.grib2 2026-05-01 14:59 270K
20260501T12Z_MSC_RDPS_AirTemp_IsbL-0005_RLatLon0.09_PT009H.grib2 2026-05-01 14:59 279K
20260501T12Z_MSC_RDPS_AirTemp_IsbL-0010_RLatLon0.09_PT009H.grib2 2026-05-01 14:59 288K
20260501T12Z_MSC_RDPS_AirTemp_IsbL-0020_RLatLon0.09_PT009H.grib2 2026-05-01 14:59 398K
20260501T12Z_MSC_RDPS_AirTemp_IsbL-0030_RLatLon0.09_PT009H.grib2 2026-05-01 14:59 325K
20260501T12Z_MSC_RDPS_AirTemp_IsbL-0050_RLatLon0.09_PT009H.grib2 2026-05-01 14:59 304K
20260501T12Z_MSC_RDPS_AirTemp_IsbL-0100_RLatLon0.09_PT009H.grib2 2026-05-01 14:59 415K
20260501T12Z_MSC_RDPS_AirTemp_IsbL-0150_RLatLon0.09_PT009H.grib2 2026-05-01 14:59 417K
20260501T12Z_MSC_RDPS_AirTemp_IsbL-0175_RLatLon0.09_PT009H.grib2 2026-05-01 14:59 412K
20260501T12Z_MSC_RDPS_AirTemp_IsbL-0200_RLatLon0.09_PT009H.grib2 2026-05-01 14:59 414K
20260501T12Z_MSC_RDPS_AirTemp_IsbL-0225_RLatLon0.09_PT009H.grib2 2026-05-01 14:59 412K
20260501T12Z_MSC_RDPS_AirTemp_IsbL-0250_RLatLon0.09_PT009H.grib2 2026-05-01 14:59 417K
20260501T12Z_MSC_RDPS_AirTemp_IsbL-0275_RLatLon0.09_PT009H.grib2 2026-05-01 14:59 398K
20260501T12Z_MSC_RDPS_AirTemp_IsbL-0300_RLatLon0.09_PT009H.grib2 2026-05-01 14:59 430K
20260501T12Z_MSC_RDPS_AirTemp_IsbL-0350_RLatLon0.09_PT009H.grib2 2026-05-01 14:59 418K
20260501T12Z_MSC_RDPS_AirTemp_IsbL-0400_RLatLon0.09_PT009H.grib2 2026-05-01 14:59 421K
20260501T12Z_MSC_RDPS_AirTemp_IsbL-0450_RLatLon0.09_PT009H.grib2 2026-05-01 14:59 394K
20260501T12Z_MSC_RDPS_AirTemp_IsbL-0500_RLatLon0.09_PT009H.grib2 2026-05-01 14:59 407K
20260501T12Z_MSC_RDPS_AirTemp_IsbL-0550_RLatLon0.09_PT009H.grib2 2026-05-01 14:59 428K
20260501T12Z_MSC_RDPS_AirTemp_IsbL-0600_RLatLon0.09_PT009H.grib2 2026-05-01 14:59 450K
20260501T12Z_MSC_RDPS_AirTemp_IsbL-0650_RLatLon0.09_PT009H.grib2 2026-05-01 14:59 466K
20260501T12Z_MSC_RDPS_AirTemp_IsbL-0700_RLatLon0.09_PT009H.grib2 2026-05-01 14:59 385K
20260501T12Z_MSC_RDPS_AirTemp_IsbL-0750_RLatLon0.09_PT009H.grib2 2026-05-01 14:59 416K
20260501T12Z_MSC_RDPS_AirTemp_IsbL-0800_RLatLon0.09_PT009H.grib2 2026-05-01 14:59 452K
20260501T12Z_MSC_RDPS_AirTemp_IsbL-0850_RLatLon0.09_PT009H.grib2 2026-05-01 14:59 497K
20260501T12Z_MSC_RDPS_AirTemp_IsbL-0875_RLatLon0.09_PT009H.grib2 2026-05-01 14:59 515K
20260501T12Z_MSC_RDPS_AirTemp_IsbL-0900_RLatLon0.09_PT009H.grib2 2026-05-01 14:59 524K
20260501T12Z_MSC_RDPS_AirTemp_IsbL-0925_RLatLon0.09_PT009H.grib2 2026-05-01 14:59 522K
20260501T12Z_MSC_RDPS_AirTemp_IsbL-0950_RLatLon0.09_PT009H.grib2 2026-05-01 14:59 525K
20260501T12Z_MSC_RDPS_AirTemp_IsbL-0970_RLatLon0.09_PT009H.grib2 2026-05-01 14:59 519K
20260501T12Z_MSC_RDPS_AirTemp_IsbL-0985_RLatLon0.09_PT009H.grib2 2026-05-01 14:59 511K
20260501T12Z_MSC_RDPS_AirTemp_IsbL-1000_RLatLon0.09_PT009H.grib2 2026-05-01 14:59 511K
20260501T12Z_MSC_RDPS_AirTemp_IsbL-1015_RLatLon0.09_PT009H.grib2 2026-05-01 14:59 505K
20260501T12Z_MSC_RDPS_Albedo_Sfc_RLatLon0.09_PT009H.grib2 2026-05-01 14:59 162K
20260501T12Z_MSC_RDPS_CAPE_Sfc_RLatLon0.09_PT009H.grib2 2026-05-01 14:59 1.7M
20260501T12Z_MSC_RDPS_CIN_Sfc_RLatLon0.09_PT009H.grib2 2026-05-01 14:59 1.2M
20260501T12Z_MSC_RDPS_CloudWater_EAtm_RLatLon0.09_PT009H.grib2 2026-05-01 14:59 222K
20260501T12Z_MSC_RDPS_ConvectivePrecip-Accum_Sfc_RLatLon0.09_PT009H.grib2 2026-05-01 14:59 532K
20260501T12Z_MSC_RDPS_DewPointDepression_AGL-2m_RLatLon0.09_PT009H.grib2 2026-05-01 14:59 416K
20260501T12Z_MSC_RDPS_DewPointDepression_IsbL-0001_RLatLon0.09_PT009H.grib2 2026-05-01 14:59 193
20260501T12Z_MSC_RDPS_DewPointDepression_IsbL-0005_RLatLon0.09_PT009H.grib2 2026-05-01 14:59 193
20260501T12Z_MSC_RDPS_DewPointDepression_IsbL-0010_RLatLon0.09_PT009H.grib2 2026-05-01 14:59 193
20260501T12Z_MSC_RDPS_DewPointDepression_IsbL-0020_RLatLon0.09_PT009H.grib2 2026-05-01 14:59 193
20260501T12Z_MSC_RDPS_DewPointDepression_IsbL-0030_RLatLon0.09_PT009H.grib2 2026-05-01 14:59 193
20260501T12Z_MSC_RDPS_DewPointDepression_IsbL-0050_RLatLon0.09_PT009H.grib2 2026-05-01 14:59 78K
20260501T12Z_MSC_RDPS_DewPointDepression_IsbL-0100_RLatLon0.09_PT009H.grib2 2026-05-01 14:59 125K
20260501T12Z_MSC_RDPS_DewPointDepression_IsbL-0150_RLatLon0.09_PT009H.grib2 2026-05-01 14:59 156K
20260501T12Z_MSC_RDPS_DewPointDepression_IsbL-0175_RLatLon0.09_PT009H.grib2 2026-05-01 14:59 192K
20260501T12Z_MSC_RDPS_DewPointDepression_IsbL-0200_RLatLon0.09_PT009H.grib2 2026-05-01 14:59 226K
20260501T12Z_MSC_RDPS_DewPointDepression_IsbL-0225_RLatLon0.09_PT009H.grib2 2026-05-01 14:59 261K
20260501T12Z_MSC_RDPS_DewPointDepression_IsbL-0250_RLatLon0.09_PT009H.grib2 2026-05-01 14:59 299K
20260501T12Z_MSC_RDPS_DewPointDepression_IsbL-0275_RLatLon0.09_PT009H.grib2 2026-05-01 14:59 306K
20260501T12Z_MSC_RDPS_DewPointDepression_IsbL-0300_RLatLon0.09_PT009H.grib2 2026-05-01 14:59 322K
20260501T12Z_MSC_RDPS_DewPointDepression_IsbL-0350_RLatLon0.09_PT009H.grib2 2026-05-01 14:59 328K
20260501T12Z_MSC_RDPS_DewPointDepression_IsbL-0400_RLatLon0.09_PT009H.grib2 2026-05-01 14:59 339K
20260501T12Z_MSC_RDPS_DewPointDepression_IsbL-0450_RLatLon0.09_PT009H.grib2 2026-05-01 14:59 347K
20260501T12Z_MSC_RDPS_DewPointDepression_IsbL-0500_RLatLon0.09_PT009H.grib2 2026-05-01 14:59 354K
20260501T12Z_MSC_RDPS_DewPointDepression_IsbL-0550_RLatLon0.09_PT009H.grib2 2026-05-01 14:59 365K
20260501T12Z_MSC_RDPS_DewPointDepression_IsbL-0600_RLatLon0.09_PT009H.grib2 2026-05-01 14:59 379K
20260501T12Z_MSC_RDPS_DewPointDepression_IsbL-0650_RLatLon0.09_PT009H.grib2 2026-05-01 14:59 383K
20260501T12Z_MSC_RDPS_DewPointDepression_IsbL-0700_RLatLon0.09_PT009H.grib2 2026-05-01 14:59 394K
20260501T12Z_MSC_RDPS_DewPointDepression_IsbL-0750_RLatLon0.09_PT009H.grib2 2026-05-01 14:59 415K
20260501T12Z_MSC_RDPS_DewPointDepression_IsbL-0800_RLatLon0.09_PT009H.grib2 2026-05-01 14:59 448K
20260501T12Z_MSC_RDPS_DewPointDepression_IsbL-0850_RLatLon0.09_PT009H.grib2 2026-05-01 14:59 475K
20260501T12Z_MSC_RDPS_DewPointDepression_IsbL-0875_RLatLon0.09_PT009H.grib2 2026-05-01 14:59 476K
20260501T12Z_MSC_RDPS_DewPointDepression_IsbL-0900_RLatLon0.09_PT009H.grib2 2026-05-01 14:59 467K
20260501T12Z_MSC_RDPS_DewPointDepression_IsbL-0925_RLatLon0.09_PT009H.grib2 2026-05-01 14:59 453K
20260501T12Z_MSC_RDPS_DewPointDepression_IsbL-0950_RLatLon0.09_PT009H.grib2 2026-05-01 14:59 446K
20260501T12Z_MSC_RDPS_DewPointDepression_IsbL-0970_RLatLon0.09_PT009H.grib2 2026-05-01 14:59 437K
20260501T12Z_MSC_RDPS_DewPointDepression_IsbL-0985_RLatLon0.09_PT009H.grib2 2026-05-01 14:59 433K
20260501T12Z_MSC_RDPS_DewPointDepression_IsbL-1000_RLatLon0.09_PT009H.grib2 2026-05-01 14:59 427K
20260501T12Z_MSC_RDPS_DewPointDepression_IsbL-1015_RLatLon0.09_PT009H.grib2 2026-05-01 14:59 415K
20260501T12Z_MSC_RDPS_DewPoint_AGL-2m_RLatLon0.09_PT009H.grib2 2026-05-01 14:59 393K
20260501T12Z_MSC_RDPS_DownwardLongwaveRadiationFlux-Accum_Sfc_RLatLon0.09_PT009H.grib2 2026-05-01 14:59 431K
20260501T12Z_MSC_RDPS_DownwardShortwaveRadiationFlux-Accum_NTAtm_RLatLon0.09_PT009H.grib2 2026-05-01 14:59 123K
20260501T12Z_MSC_RDPS_DownwardShortwaveRadiationFlux-Accum_Sfc_RLatLon0.09_PT009H.grib2 2026-05-01 14:59 533K
20260501T12Z_MSC_RDPS_FreezingRain-Accum1h_Sfc_RLatLon0.09_PT009H.grib2 2026-05-01 14:59 13K
20260501T12Z_MSC_RDPS_FreezingRain-Accum3h_Sfc_RLatLon0.09_PT009H.grib2 2026-05-01 14:59 13K
20260501T12Z_MSC_RDPS_FreezingRain-Accum_Sfc_RLatLon0.09_PT009H.grib2 2026-05-01 14:59 43K
20260501T12Z_MSC_RDPS_GeopotentialHeight_IsbL-0001_RLatLon0.09_PT009H.grib2 2026-05-01 14:59 243K
20260501T12Z_MSC_RDPS_GeopotentialHeight_IsbL-0005_RLatLon0.09_PT009H.grib2 2026-05-01 14:59 335K
20260501T12Z_MSC_RDPS_GeopotentialHeight_IsbL-0010_RLatLon0.09_PT009H.grib2 2026-05-01 14:59 303K
20260501T12Z_MSC_RDPS_GeopotentialHeight_IsbL-0020_RLatLon0.09_PT009H.grib2 2026-05-01 14:59 302K
20260501T12Z_MSC_RDPS_GeopotentialHeight_IsbL-0030_RLatLon0.09_PT009H.grib2 2026-05-01 14:59 304K
20260501T12Z_MSC_RDPS_GeopotentialHeight_IsbL-0050_RLatLon0.09_PT009H.grib2 2026-05-01 14:59 338K
20260501T12Z_MSC_RDPS_GeopotentialHeight_IsbL-0100_RLatLon0.09_PT009H.grib2 2026-05-01 14:59 283K
20260501T12Z_MSC_RDPS_GeopotentialHeight_IsbL-0150_RLatLon0.09_PT009H.grib2 2026-05-01 14:59 229K
20260501T12Z_MSC_RDPS_GeopotentialHeight_IsbL-0175_RLatLon0.09_PT009H.grib2 2026-05-01 14:59 263K
20260501T12Z_MSC_RDPS_GeopotentialHeight_IsbL-0200_RLatLon0.09_PT009H.grib2 2026-05-01 14:59 266K
20260501T12Z_MSC_RDPS_GeopotentialHeight_IsbL-0225_RLatLon0.09_PT009H.grib2 2026-05-01 14:59 267K
20260501T12Z_MSC_RDPS_GeopotentialHeight_IsbL-0250_RLatLon0.09_PT009H.grib2 2026-05-01 14:59 268K
20260501T12Z_MSC_RDPS_GeopotentialHeight_IsbL-0275_RLatLon0.09_PT009H.grib2 2026-05-01 14:59 266K
20260501T12Z_MSC_RDPS_GeopotentialHeight_IsbL-0300_RLatLon0.09_PT009H.grib2 2026-05-01 14:59 235K
20260501T12Z_MSC_RDPS_GeopotentialHeight_IsbL-0350_RLatLon0.09_PT009H.grib2 2026-05-01 14:59 231K
20260501T12Z_MSC_RDPS_GeopotentialHeight_IsbL-0400_RLatLon0.09_PT009H.grib2 2026-05-01 14:59 228K
20260501T12Z_MSC_RDPS_GeopotentialHeight_IsbL-0450_RLatLon0.09_PT009H.grib2 2026-05-01 14:59 296K
20260501T12Z_MSC_RDPS_GeopotentialHeight_IsbL-0500_RLatLon0.09_PT009H.grib2 2026-05-01 14:59 292K
20260501T12Z_MSC_RDPS_GeopotentialHeight_IsbL-0550_RLatLon0.09_PT009H.grib2 2026-05-01 14:59 289K
20260501T12Z_MSC_RDPS_GeopotentialHeight_IsbL-0600_RLatLon0.09_PT009H.grib2 2026-05-01 14:59 285K
20260501T12Z_MSC_RDPS_GeopotentialHeight_IsbL-0650_RLatLon0.09_PT009H.grib2 2026-05-01 14:59 256K
20260501T12Z_MSC_RDPS_GeopotentialHeight_IsbL-0700_RLatLon0.09_PT009H.grib2 2026-05-01 14:59 256K
20260501T12Z_MSC_RDPS_GeopotentialHeight_IsbL-0750_RLatLon0.09_PT009H.grib2 2026-05-01 14:59 341K
20260501T12Z_MSC_RDPS_GeopotentialHeight_IsbL-0800_RLatLon0.09_PT009H.grib2 2026-05-01 14:59 346K
20260501T12Z_MSC_RDPS_GeopotentialHeight_IsbL-0850_RLatLon0.09_PT009H.grib2 2026-05-01 14:59 354K
20260501T12Z_MSC_RDPS_GeopotentialHeight_IsbL-0875_RLatLon0.09_PT009H.grib2 2026-05-01 14:59 357K
20260501T12Z_MSC_RDPS_GeopotentialHeight_IsbL-0900_RLatLon0.09_PT009H.grib2 2026-05-01 14:59 361K
20260501T12Z_MSC_RDPS_GeopotentialHeight_IsbL-0925_RLatLon0.09_PT009H.grib2 2026-05-01 14:59 365K
20260501T12Z_MSC_RDPS_GeopotentialHeight_IsbL-0950_RLatLon0.09_PT009H.grib2 2026-05-01 14:59 402K
20260501T12Z_MSC_RDPS_GeopotentialHeight_IsbL-0970_RLatLon0.09_PT009H.grib2 2026-05-01 14:59 407K
20260501T12Z_MSC_RDPS_GeopotentialHeight_IsbL-0985_RLatLon0.09_PT009H.grib2 2026-05-01 14:59 417K
20260501T12Z_MSC_RDPS_GeopotentialHeight_IsbL-1000_RLatLon0.09_PT009H.grib2 2026-05-01 14:59 430K
20260501T12Z_MSC_RDPS_GeopotentialHeight_IsbL-1015_RLatLon0.09_PT009H.grib2 2026-05-01 14:59 447K
20260501T12Z_MSC_RDPS_Humidex_Sfc_RLatLon0.09_PT009H.grib2 2026-05-01 14:59 2.4M
20260501T12Z_MSC_RDPS_IcePellets-Accum1h_Sfc_RLatLon0.09_PT009H.grib2 2026-05-01 14:59 5.3K
20260501T12Z_MSC_RDPS_IcePellets-Accum3h_Sfc_RLatLon0.09_PT009H.grib2 2026-05-01 14:59 7.2K
20260501T12Z_MSC_RDPS_IcePellets-Accum_Sfc_RLatLon0.09_PT009H.grib2 2026-05-01 14:59 16K
20260501T12Z_MSC_RDPS_KIndex_Sfc_RLatLon0.09_PT009H.grib2 2026-05-01 14:59 2.4M
20260501T12Z_MSC_RDPS_LatentHeatNetFlux_Sfc_RLatLon0.09_PT009H.grib2 2026-05-01 14:59 298K
20260501T12Z_MSC_RDPS_LiftedIndex-MU-VT_IsbL-0500_RLatLon0.09_PT009H.grib2 2026-05-01 14:59 2.4M
20260501T12Z_MSC_RDPS_NetLongwaveRadiationFlux-Accum_Sfc_RLatLon0.09_PT009H.grib2 2026-05-01 14:59 579K
20260501T12Z_MSC_RDPS_NetShortwaveRadiationFlux-Accum_Sfc_RLatLon0.09_PT009H.grib2 2026-05-01 14:59 534K
20260501T12Z_MSC_RDPS_PlanetaryBoundaryLayerHeight_Sfc_RLatLon0.09_PT009H.grib2 2026-05-01 14:59 1.0M
20260501T12Z_MSC_RDPS_Precip-Accum1h_Sfc_RLatLon0.09_PT009H.grib2 2026-05-01 14:59 1.0M
20260501T12Z_MSC_RDPS_Precip-Accum3h_Sfc_RLatLon0.09_PT009H.grib2 2026-05-01 14:59 1.2M
20260501T12Z_MSC_RDPS_Precip-Accum_Sfc_RLatLon0.09_PT009H.grib2 2026-05-01 14:59 1.5M
20260501T12Z_MSC_RDPS_PrecipRate_Sfc_RLatLon0.09_PT009H.grib2 2026-05-01 14:59 160K
20260501T12Z_MSC_RDPS_PrecipType-Instant_Sfc_RLatLon0.09_PT009H.grib2 2026-05-01 14:59 554K
20260501T12Z_MSC_RDPS_Pressure-Trend3h_Sfc_RLatLon0.09_PT009H.grib2 2026-05-01 14:59 1.2M
20260501T12Z_MSC_RDPS_Pressure_MSL_RLatLon0.09_PT009H.grib2 2026-05-01 14:59 328K
20260501T12Z_MSC_RDPS_Pressure_PVU-1.5_RLatLon0.09_PT009H.grib2 2026-05-01 14:59 2.5M
20260501T12Z_MSC_RDPS_Pressure_PVU-1_RLatLon0.09_PT009H.grib2 2026-05-01 14:59 2.4M
20260501T12Z_MSC_RDPS_Pressure_PVU-2_RLatLon0.09_PT009H.grib2 2026-05-01 14:59 2.4M
20260501T12Z_MSC_RDPS_Pressure_Sfc_RLatLon0.09_PT009H.grib2 2026-05-01 14:59 498K
20260501T12Z_MSC_RDPS_RadiativeTemp_Sfc_RLatLon0.09_PT009H.grib2 2026-05-01 14:59 327K
20260501T12Z_MSC_RDPS_Rain-Accum1h_Sfc_RLatLon0.09_PT009H.grib2 2026-05-01 14:59 485K
20260501T12Z_MSC_RDPS_Rain-Accum3h_Sfc_RLatLon0.09_PT009H.grib2 2026-05-01 14:59 582K
20260501T12Z_MSC_RDPS_Rain-Accum_Sfc_RLatLon0.09_PT009H.grib2 2026-05-01 14:59 1.1M
20260501T12Z_MSC_RDPS_RelativeHumidity_AGL-2m_RLatLon0.09_PT009H.grib2 2026-05-01 14:59 1.0M
20260501T12Z_MSC_RDPS_RelativeHumidity_IsbL-0010_RLatLon0.09_PT009H.grib2 2026-05-01 14:59 626K
20260501T12Z_MSC_RDPS_RelativeHumidity_IsbL-0020_RLatLon0.09_PT009H.grib2 2026-05-01 14:59 676K
20260501T12Z_MSC_RDPS_RelativeHumidity_IsbL-0030_RLatLon0.09_PT009H.grib2 2026-05-01 14:59 602K
20260501T12Z_MSC_RDPS_RelativeHumidity_IsbL-0050_RLatLon0.09_PT009H.grib2 2026-05-01 14:59 308K
20260501T12Z_MSC_RDPS_RelativeHumidity_IsbL-0100_RLatLon0.09_PT009H.grib2 2026-05-01 14:59 273K
20260501T12Z_MSC_RDPS_RelativeHumidity_IsbL-0150_RLatLon0.09_PT009H.grib2 2026-05-01 14:59 410K
20260501T12Z_MSC_RDPS_RelativeHumidity_IsbL-0175_RLatLon0.09_PT009H.grib2 2026-05-01 14:59 478K
20260501T12Z_MSC_RDPS_RelativeHumidity_IsbL-0200_RLatLon0.09_PT009H.grib2 2026-05-01 14:59 560K
20260501T12Z_MSC_RDPS_RelativeHumidity_IsbL-0225_RLatLon0.09_PT009H.grib2 2026-05-01 14:59 621K
20260501T12Z_MSC_RDPS_RelativeHumidity_IsbL-0250_RLatLon0.09_PT009H.grib2 2026-05-01 14:59 685K
20260501T12Z_MSC_RDPS_RelativeHumidity_IsbL-0275_RLatLon0.09_PT009H.grib2 2026-05-01 14:59 708K
20260501T12Z_MSC_RDPS_RelativeHumidity_IsbL-0300_RLatLon0.09_PT009H.grib2 2026-05-01 14:59 748K
20260501T12Z_MSC_RDPS_RelativeHumidity_IsbL-0350_RLatLon0.09_PT009H.grib2 2026-05-01 14:59 765K
20260501T12Z_MSC_RDPS_RelativeHumidity_IsbL-0400_RLatLon0.09_PT009H.grib2 2026-05-01 14:59 784K
20260501T12Z_MSC_RDPS_RelativeHumidity_IsbL-0450_RLatLon0.09_PT009H.grib2 2026-05-01 14:59 794K
20260501T12Z_MSC_RDPS_RelativeHumidity_IsbL-0500_RLatLon0.09_PT009H.grib2 2026-05-01 14:59 800K
20260501T12Z_MSC_RDPS_RelativeHumidity_IsbL-0550_RLatLon0.09_PT009H.grib2 2026-05-01 14:59 830K
20260501T12Z_MSC_RDPS_RelativeHumidity_IsbL-0600_RLatLon0.09_PT009H.grib2 2026-05-01 14:59 856K
20260501T12Z_MSC_RDPS_RelativeHumidity_IsbL-0650_RLatLon0.09_PT009H.grib2 2026-05-01 14:59 868K
20260501T12Z_MSC_RDPS_RelativeHumidity_IsbL-0700_RLatLon0.09_PT009H.grib2 2026-05-01 14:59 888K
20260501T12Z_MSC_RDPS_RelativeHumidity_IsbL-0750_RLatLon0.09_PT009H.grib2 2026-05-01 14:59 933K
20260501T12Z_MSC_RDPS_RelativeHumidity_IsbL-0800_RLatLon0.09_PT009H.grib2 2026-05-01 14:59 1.0M
20260501T12Z_MSC_RDPS_RelativeHumidity_IsbL-0850_RLatLon0.09_PT009H.grib2 2026-05-01 14:59 1.0M
20260501T12Z_MSC_RDPS_RelativeHumidity_IsbL-0875_RLatLon0.09_PT009H.grib2 2026-05-01 14:59 1.1M
20260501T12Z_MSC_RDPS_RelativeHumidity_IsbL-0900_RLatLon0.09_PT009H.grib2 2026-05-01 14:59 1.1M
20260501T12Z_MSC_RDPS_RelativeHumidity_IsbL-0925_RLatLon0.09_PT009H.grib2 2026-05-01 14:59 1.1M
20260501T12Z_MSC_RDPS_RelativeHumidity_IsbL-0950_RLatLon0.09_PT009H.grib2 2026-05-01 14:59 1.1M
20260501T12Z_MSC_RDPS_RelativeHumidity_IsbL-0970_RLatLon0.09_PT009H.grib2 2026-05-01 14:59 1.0M
20260501T12Z_MSC_RDPS_RelativeHumidity_IsbL-0985_RLatLon0.09_PT009H.grib2 2026-05-01 14:59 1.0M
20260501T12Z_MSC_RDPS_RelativeHumidity_IsbL-1000_RLatLon0.09_PT009H.grib2 2026-05-01 14:59 1.0M
20260501T12Z_MSC_RDPS_RelativeHumidity_IsbL-1015_RLatLon0.09_PT009H.grib2 2026-05-01 14:59 1.0M
20260501T12Z_MSC_RDPS_Runoff-Accum_Sfc_RLatLon0.09_PT009H.grib2 2026-05-01 14:59 48K
20260501T12Z_MSC_RDPS_SWEATIndex_Sfc_RLatLon0.09_PT009H.grib2 2026-05-01 14:59 2.4M
20260501T12Z_MSC_RDPS_SeeingIndex_EAtm_RLatLon0.09_PT009H.grib2 2026-05-01 14:59 1.0M
20260501T12Z_MSC_RDPS_SensibleHeatNetFlux_Sfc_RLatLon0.09_PT009H.grib2 2026-05-01 14:59 353K
20260501T12Z_MSC_RDPS_ShowalterIndex_IsbL-0500_RLatLon0.09_PT009H.grib2 2026-05-01 14:59 2.6M
20260501T12Z_MSC_RDPS_SkyTransparencyIndex_EAtm_RLatLon0.09_PT009H.grib2 2026-05-01 14:59 727K
20260501T12Z_MSC_RDPS_Snow-Accum1h_Sfc_RLatLon0.09_PT009H.grib2 2026-05-01 14:59 426K
20260501T12Z_MSC_RDPS_Snow-Accum3h_Sfc_RLatLon0.09_PT009H.grib2 2026-05-01 14:59 423K
20260501T12Z_MSC_RDPS_Snow-Accum_Sfc_RLatLon0.09_PT009H.grib2 2026-05-01 14:59 595K
20260501T12Z_MSC_RDPS_SnowDensity_Sfc_RLatLon0.09_PT009H.grib2 2026-05-01 14:59 166K
20260501T12Z_MSC_RDPS_SnowDepth_Sfc_RLatLon0.09_PT009H.grib2 2026-05-01 14:59 661K
20260501T12Z_MSC_RDPS_SoilTemp_DBS-0to10cm_RLatLon0.09_PT009H.grib2 2026-05-01 14:59 216K
20260501T12Z_MSC_RDPS_SoilTemp_Sfc_RLatLon0.09_PT009H.grib2 2026-05-01 14:59 292K
20260501T12Z_MSC_RDPS_SoilVolumetricIceContent_Sfc_RLatLon0.09_PT009H.grib2 2026-05-01 14:59 161K
20260501T12Z_MSC_RDPS_SoilVolumetricWaterContent_DBS-0to10cm_RLatLon0.09_PT009H.grib2 2026-05-01 14:59 270K
20260501T12Z_MSC_RDPS_SoilVolumetricWaterContent_DBS-0to1cm_RLatLon0.09_PT009H.grib2 2026-05-01 14:59 336K
20260501T12Z_MSC_RDPS_SpecificHumidity_AGL-120m_RLatLon0.09_PT009H.grib2 2026-05-01 14:59 491K
20260501T12Z_MSC_RDPS_SpecificHumidity_AGL-2m_RLatLon0.09_PT009H.grib2 2026-05-01 14:59 657K
20260501T12Z_MSC_RDPS_SpecificHumidity_AGL-40m_RLatLon0.09_PT009H.grib2 2026-05-01 14:59 495K
20260501T12Z_MSC_RDPS_SpecificHumidity_AGL-80m_RLatLon0.09_PT009H.grib2 2026-05-01 14:59 492K
20260501T12Z_MSC_RDPS_SpecificHumidity_IsbL-0001_RLatLon0.09_PT009H.grib2 2026-05-01 14:59 403K
20260501T12Z_MSC_RDPS_SpecificHumidity_IsbL-0005_RLatLon0.09_PT009H.grib2 2026-05-01 14:59 359K
20260501T12Z_MSC_RDPS_SpecificHumidity_IsbL-0010_RLatLon0.09_PT009H.grib2 2026-05-01 14:59 392K
20260501T12Z_MSC_RDPS_SpecificHumidity_IsbL-0020_RLatLon0.09_PT009H.grib2 2026-05-01 14:59 380K
20260501T12Z_MSC_RDPS_SpecificHumidity_IsbL-0030_RLatLon0.09_PT009H.grib2 2026-05-01 14:59 372K
20260501T12Z_MSC_RDPS_SpecificHumidity_IsbL-0050_RLatLon0.09_PT009H.grib2 2026-05-01 14:59 483K
20260501T12Z_MSC_RDPS_SpecificHumidity_IsbL-0100_RLatLon0.09_PT009H.grib2 2026-05-01 14:59 443K
20260501T12Z_MSC_RDPS_SpecificHumidity_IsbL-0150_RLatLon0.09_PT009H.grib2 2026-05-01 14:59 478K
20260501T12Z_MSC_RDPS_SpecificHumidity_IsbL-0175_RLatLon0.09_PT009H.grib2 2026-05-01 14:59 436K
20260501T12Z_MSC_RDPS_SpecificHumidity_IsbL-0200_RLatLon0.09_PT009H.grib2 2026-05-01 14:59 470K
20260501T12Z_MSC_RDPS_SpecificHumidity_IsbL-0225_RLatLon0.09_PT009H.grib2 2026-05-01 14:59 470K
20260501T12Z_MSC_RDPS_SpecificHumidity_IsbL-0250_RLatLon0.09_PT009H.grib2 2026-05-01 14:59 514K
20260501T12Z_MSC_RDPS_SpecificHumidity_IsbL-0275_RLatLon0.09_PT009H.grib2 2026-05-01 14:59 473K
20260501T12Z_MSC_RDPS_SpecificHumidity_IsbL-0300_RLatLon0.09_PT009H.grib2 2026-05-01 14:59 447K
20260501T12Z_MSC_RDPS_SpecificHumidity_IsbL-0350_RLatLon0.09_PT009H.grib2 2026-05-01 14:59 437K
20260501T12Z_MSC_RDPS_SpecificHumidity_IsbL-0400_RLatLon0.09_PT009H.grib2 2026-05-01 14:59 516K
20260501T12Z_MSC_RDPS_SpecificHumidity_IsbL-0450_RLatLon0.09_PT009H.grib2 2026-05-01 14:59 570K
20260501T12Z_MSC_RDPS_SpecificHumidity_IsbL-0500_RLatLon0.09_PT009H.grib2 2026-05-01 14:59 507K
20260501T12Z_MSC_RDPS_SpecificHumidity_IsbL-0550_RLatLon0.09_PT009H.grib2 2026-05-01 14:59 582K
20260501T12Z_MSC_RDPS_SpecificHumidity_IsbL-0600_RLatLon0.09_PT009H.grib2 2026-05-01 14:59 637K
20260501T12Z_MSC_RDPS_SpecificHumidity_IsbL-0650_RLatLon0.09_PT009H.grib2 2026-05-01 14:59 554K
20260501T12Z_MSC_RDPS_SpecificHumidity_IsbL-0700_RLatLon0.09_PT009H.grib2 2026-05-01 14:59 596K
20260501T12Z_MSC_RDPS_SpecificHumidity_IsbL-0750_RLatLon0.09_PT009H.grib2 2026-05-01 14:59 668K
20260501T12Z_MSC_RDPS_SpecificHumidity_IsbL-0800_RLatLon0.09_PT009H.grib2 2026-05-01 14:59 739K
20260501T12Z_MSC_RDPS_SpecificHumidity_IsbL-0850_RLatLon0.09_PT009H.grib2 2026-05-01 14:59 812K
20260501T12Z_MSC_RDPS_SpecificHumidity_IsbL-0875_RLatLon0.09_PT009H.grib2 2026-05-01 14:59 836K
20260501T12Z_MSC_RDPS_SpecificHumidity_IsbL-0900_RLatLon0.09_PT009H.grib2 2026-05-01 14:59 710K
20260501T12Z_MSC_RDPS_SpecificHumidity_IsbL-0925_RLatLon0.09_PT009H.grib2 2026-05-01 14:59 711K
20260501T12Z_MSC_RDPS_SpecificHumidity_IsbL-0950_RLatLon0.09_PT009H.grib2 2026-05-01 14:59 711K
20260501T12Z_MSC_RDPS_SpecificHumidity_IsbL-0970_RLatLon0.09_PT009H.grib2 2026-05-01 14:59 700K
20260501T12Z_MSC_RDPS_SpecificHumidity_IsbL-0985_RLatLon0.09_PT009H.grib2 2026-05-01 14:59 691K
20260501T12Z_MSC_RDPS_SpecificHumidity_IsbL-1000_RLatLon0.09_PT009H.grib2 2026-05-01 14:59 683K
20260501T12Z_MSC_RDPS_SpecificHumidity_IsbL-1015_RLatLon0.09_PT009H.grib2 2026-05-01 14:59 669K
20260501T12Z_MSC_RDPS_SpecificHumidity_Sfc_RLatLon0.09_PT009H.grib2 2026-05-01 14:59 345K
20260501T12Z_MSC_RDPS_StormRelativeHelicity_EtaL-10000_RLatLon0.09_PT009H.grib2 2026-05-01 14:59 1.1M
20260501T12Z_MSC_RDPS_StormSeverityIndex_EtaL-10000_RLatLon0.09_PT009H.grib2 2026-05-01 14:59 1.1M
20260501T12Z_MSC_RDPS_Thickness_IsbL-0850to0700_RLatLon0.09_PT009H.grib2 2026-05-01 14:59 177K
20260501T12Z_MSC_RDPS_Thickness_IsbL-1000to0500_RLatLon0.09_PT009H.grib2 2026-05-01 14:59 137K
20260501T12Z_MSC_RDPS_Thickness_IsbL-1000to0850_RLatLon0.09_PT009H.grib2 2026-05-01 14:59 187K
20260501T12Z_MSC_RDPS_TotalCloudCover_Sfc_RLatLon0.09_PT009H.grib2 2026-05-01 14:59 646K
20260501T12Z_MSC_RDPS_TotalTotalsIndex_Sfc_RLatLon0.09_PT009H.grib2 2026-05-01 14:59 2.3M
20260501T12Z_MSC_RDPS_UVIndex-ClearSky_Sfc_RLatLon0.09_PT009H.grib2 2026-05-01 14:59 198K
20260501T12Z_MSC_RDPS_UVIndex_Sfc_RLatLon0.09_PT009H.grib2 2026-05-01 14:59 461K
20260501T12Z_MSC_RDPS_UpwardLongwaveRadiationFlux_NTAtm_RLatLon0.09_PT009H.grib2 2026-05-01 14:59 383K
20260501T12Z_MSC_RDPS_UpwardShortwaveRadiationFlux_NTAtm_RLatLon0.09_PT009H.grib2 2026-05-01 14:59 501K
20260501T12Z_MSC_RDPS_VerticalVelocity_IsbL-0250_RLatLon0.09_PT009H.grib2 2026-05-01 14:59 427K
20260501T12Z_MSC_RDPS_VerticalVelocity_IsbL-0500_RLatLon0.09_PT009H.grib2 2026-05-01 14:59 539K
20260501T12Z_MSC_RDPS_VerticalVelocity_IsbL-0700_RLatLon0.09_PT009H.grib2 2026-05-01 14:59 624K
20260501T12Z_MSC_RDPS_VerticalVelocity_IsbL-0850_RLatLon0.09_PT009H.grib2 2026-05-01 14:59 714K
20260501T12Z_MSC_RDPS_VerticalWindShear_EtaL-6500_RLatLon0.09_PT009H.grib2 2026-05-01 14:59 1.2M
20260501T12Z_MSC_RDPS_WindChill_Sfc_RLatLon0.09_PT009H.grib2 2026-05-01 14:59 1.1M
20260501T12Z_MSC_RDPS_WindDir_AGL-10m_RLatLon0.09_PT009H.grib2 2026-05-01 14:59 951K
20260501T12Z_MSC_RDPS_WindDir_AGL-120m_RLatLon0.09_PT009H.grib2 2026-05-01 14:59 601K
20260501T12Z_MSC_RDPS_WindDir_AGL-40m_RLatLon0.09_PT009H.grib2 2026-05-01 14:59 622K
20260501T12Z_MSC_RDPS_WindDir_AGL-80m_RLatLon0.09_PT009H.grib2 2026-05-01 14:59 609K
20260501T12Z_MSC_RDPS_WindDir_IsbL-0001_RLatLon0.09_PT009H.grib2 2026-05-01 14:59 281K
20260501T12Z_MSC_RDPS_WindDir_IsbL-0005_RLatLon0.09_PT009H.grib2 2026-05-01 14:59 341K
20260501T12Z_MSC_RDPS_WindDir_IsbL-0010_RLatLon0.09_PT009H.grib2 2026-05-01 14:59 353K
20260501T12Z_MSC_RDPS_WindDir_IsbL-0020_RLatLon0.09_PT009H.grib2 2026-05-01 14:59 400K
20260501T12Z_MSC_RDPS_WindDir_IsbL-0030_RLatLon0.09_PT009H.grib2 2026-05-01 14:59 398K
20260501T12Z_MSC_RDPS_WindDir_IsbL-0050_RLatLon0.09_PT009H.grib2 2026-05-01 14:59 396K
20260501T12Z_MSC_RDPS_WindDir_IsbL-0100_RLatLon0.09_PT009H.grib2 2026-05-01 14:59 412K
20260501T12Z_MSC_RDPS_WindDir_IsbL-0150_RLatLon0.09_PT009H.grib2 2026-05-01 14:59 413K
20260501T12Z_MSC_RDPS_WindDir_IsbL-0175_RLatLon0.09_PT009H.grib2 2026-05-01 14:59 436K
20260501T12Z_MSC_RDPS_WindDir_IsbL-0200_RLatLon0.09_PT009H.grib2 2026-05-01 14:59 451K
20260501T12Z_MSC_RDPS_WindDir_IsbL-0225_RLatLon0.09_PT009H.grib2 2026-05-01 14:59 451K
20260501T12Z_MSC_RDPS_WindDir_IsbL-0250_RLatLon0.09_PT009H.grib2 2026-05-01 14:59 451K
20260501T12Z_MSC_RDPS_WindDir_IsbL-0275_RLatLon0.09_PT009H.grib2 2026-05-01 14:59 471K
20260501T12Z_MSC_RDPS_WindDir_IsbL-0300_RLatLon0.09_PT009H.grib2 2026-05-01 14:59 470K
20260501T12Z_MSC_RDPS_WindDir_IsbL-0350_RLatLon0.09_PT009H.grib2 2026-05-01 14:59 491K
20260501T12Z_MSC_RDPS_WindDir_IsbL-0400_RLatLon0.09_PT009H.grib2 2026-05-01 14:59 506K
20260501T12Z_MSC_RDPS_WindDir_IsbL-0450_RLatLon0.09_PT009H.grib2 2026-05-01 14:59 524K
20260501T12Z_MSC_RDPS_WindDir_IsbL-0500_RLatLon0.09_PT009H.grib2 2026-05-01 14:59 537K
20260501T12Z_MSC_RDPS_WindDir_IsbL-0550_RLatLon0.09_PT009H.grib2 2026-05-01 14:59 561K
20260501T12Z_MSC_RDPS_WindDir_IsbL-0600_RLatLon0.09_PT009H.grib2 2026-05-01 14:59 590K
20260501T12Z_MSC_RDPS_WindDir_IsbL-0650_RLatLon0.09_PT009H.grib2 2026-05-01 14:59 631K
20260501T12Z_MSC_RDPS_WindDir_IsbL-0700_RLatLon0.09_PT009H.grib2 2026-05-01 14:59 678K
20260501T12Z_MSC_RDPS_WindDir_IsbL-0750_RLatLon0.09_PT009H.grib2 2026-05-01 14:59 727K
20260501T12Z_MSC_RDPS_WindDir_IsbL-0800_RLatLon0.09_PT009H.grib2 2026-05-01 14:59 795K
20260501T12Z_MSC_RDPS_WindDir_IsbL-0850_RLatLon0.09_PT009H.grib2 2026-05-01 14:59 865K
20260501T12Z_MSC_RDPS_WindDir_IsbL-0875_RLatLon0.09_PT009H.grib2 2026-05-01 14:59 886K
20260501T12Z_MSC_RDPS_WindDir_IsbL-0900_RLatLon0.09_PT009H.grib2 2026-05-01 14:59 900K
20260501T12Z_MSC_RDPS_WindDir_IsbL-0925_RLatLon0.09_PT009H.grib2 2026-05-01 14:59 907K
20260501T12Z_MSC_RDPS_WindDir_IsbL-0950_RLatLon0.09_PT009H.grib2 2026-05-01 14:59 906K
20260501T12Z_MSC_RDPS_WindDir_IsbL-0970_RLatLon0.09_PT009H.grib2 2026-05-01 14:59 910K
20260501T12Z_MSC_RDPS_WindDir_IsbL-0985_RLatLon0.09_PT009H.grib2 2026-05-01 14:59 917K
20260501T12Z_MSC_RDPS_WindDir_IsbL-1000_RLatLon0.09_PT009H.grib2 2026-05-01 14:59 930K
20260501T12Z_MSC_RDPS_WindDir_IsbL-1015_RLatLon0.09_PT009H.grib2 2026-05-01 14:59 944K
20260501T12Z_MSC_RDPS_WindGust-Max_AGL-10m_RLatLon0.09_PT009H.grib2 2026-05-01 14:59 1.0M
20260501T12Z_MSC_RDPS_WindGust-Min_AGL-10m_RLatLon0.09_PT009H.grib2 2026-05-01 14:59 960K
20260501T12Z_MSC_RDPS_WindGust_AGL-10m_RLatLon0.09_PT009H.grib2 2026-05-01 14:59 970K
20260501T12Z_MSC_RDPS_WindSpeed_AGL-10m_RLatLon0.09_PT009H.grib2 2026-05-01 14:59 827K
20260501T12Z_MSC_RDPS_WindSpeed_AGL-120m_RLatLon0.09_PT009H.grib2 2026-05-01 14:59 527K
20260501T12Z_MSC_RDPS_WindSpeed_AGL-40m_RLatLon0.09_PT009H.grib2 2026-05-01 14:59 529K
20260501T12Z_MSC_RDPS_WindSpeed_AGL-80m_RLatLon0.09_PT009H.grib2 2026-05-01 14:59 527K
20260501T12Z_MSC_RDPS_WindSpeed_IsbL-0001_RLatLon0.09_PT009H.grib2 2026-05-01 14:59 248K
20260501T12Z_MSC_RDPS_WindSpeed_IsbL-0005_RLatLon0.09_PT009H.grib2 2026-05-01 14:59 369K
20260501T12Z_MSC_RDPS_WindSpeed_IsbL-0010_RLatLon0.09_PT009H.grib2 2026-05-01 14:59 382K
20260501T12Z_MSC_RDPS_WindSpeed_IsbL-0020_RLatLon0.09_PT009H.grib2 2026-05-01 14:59 311K
20260501T12Z_MSC_RDPS_WindSpeed_IsbL-0030_RLatLon0.09_PT009H.grib2 2026-05-01 14:59 309K
20260501T12Z_MSC_RDPS_WindSpeed_IsbL-0050_RLatLon0.09_PT009H.grib2 2026-05-01 14:59 337K
20260501T12Z_MSC_RDPS_WindSpeed_IsbL-0100_RLatLon0.09_PT009H.grib2 2026-05-01 14:59 471K
20260501T12Z_MSC_RDPS_WindSpeed_IsbL-0150_RLatLon0.09_PT009H.grib2 2026-05-01 14:59 380K
20260501T12Z_MSC_RDPS_WindSpeed_IsbL-0175_RLatLon0.09_PT009H.grib2 2026-05-01 14:59 428K
20260501T12Z_MSC_RDPS_WindSpeed_IsbL-0200_RLatLon0.09_PT009H.grib2 2026-05-01 14:59 442K
20260501T12Z_MSC_RDPS_WindSpeed_IsbL-0225_RLatLon0.09_PT009H.grib2 2026-05-01 14:59 448K
20260501T12Z_MSC_RDPS_WindSpeed_IsbL-0250_RLatLon0.09_PT009H.grib2 2026-05-01 14:59 448K
20260501T12Z_MSC_RDPS_WindSpeed_IsbL-0275_RLatLon0.09_PT009H.grib2 2026-05-01 14:59 464K
20260501T12Z_MSC_RDPS_WindSpeed_IsbL-0300_RLatLon0.09_PT009H.grib2 2026-05-01 14:59 461K
20260501T12Z_MSC_RDPS_WindSpeed_IsbL-0350_RLatLon0.09_PT009H.grib2 2026-05-01 14:59 469K
20260501T12Z_MSC_RDPS_WindSpeed_IsbL-0400_RLatLon0.09_PT009H.grib2 2026-05-01 14:59 473K
20260501T12Z_MSC_RDPS_WindSpeed_IsbL-0450_RLatLon0.09_PT009H.grib2 2026-05-01 14:59 458K
20260501T12Z_MSC_RDPS_WindSpeed_IsbL-0500_RLatLon0.09_PT009H.grib2 2026-05-01 14:59 460K
20260501T12Z_MSC_RDPS_WindSpeed_IsbL-0550_RLatLon0.09_PT009H.grib2 2026-05-01 14:59 580K
20260501T12Z_MSC_RDPS_WindSpeed_IsbL-0600_RLatLon0.09_PT009H.grib2 2026-05-01 14:59 592K
20260501T12Z_MSC_RDPS_WindSpeed_IsbL-0650_RLatLon0.09_PT009H.grib2 2026-05-01 14:59 614K
20260501T12Z_MSC_RDPS_WindSpeed_IsbL-0700_RLatLon0.09_PT009H.grib2 2026-05-01 14:59 683K
20260501T12Z_MSC_RDPS_WindSpeed_IsbL-0750_RLatLon0.09_PT009H.grib2 2026-05-01 14:59 714K
20260501T12Z_MSC_RDPS_WindSpeed_IsbL-0800_RLatLon0.09_PT009H.grib2 2026-05-01 14:59 756K
20260501T12Z_MSC_RDPS_WindSpeed_IsbL-0850_RLatLon0.09_PT009H.grib2 2026-05-01 14:59 809K
20260501T12Z_MSC_RDPS_WindSpeed_IsbL-0875_RLatLon0.09_PT009H.grib2 2026-05-01 14:59 820K
20260501T12Z_MSC_RDPS_WindSpeed_IsbL-0900_RLatLon0.09_PT009H.grib2 2026-05-01 14:59 835K
20260501T12Z_MSC_RDPS_WindSpeed_IsbL-0925_RLatLon0.09_PT009H.grib2 2026-05-01 14:59 848K
20260501T12Z_MSC_RDPS_WindSpeed_IsbL-0950_RLatLon0.09_PT009H.grib2 2026-05-01 14:59 848K
20260501T12Z_MSC_RDPS_WindSpeed_IsbL-0970_RLatLon0.09_PT009H.grib2 2026-05-01 14:59 849K
20260501T12Z_MSC_RDPS_WindSpeed_IsbL-0985_RLatLon0.09_PT009H.grib2 2026-05-01 14:59 844K
20260501T12Z_MSC_RDPS_WindSpeed_IsbL-1000_RLatLon0.09_PT009H.grib2 2026-05-01 14:59 839K
20260501T12Z_MSC_RDPS_WindSpeed_IsbL-1015_RLatLon0.09_PT009H.grib2 2026-05-01 14:59 829K
20260501T12Z_MSC_RDPS_WindU_AGL-10m_RLatLon0.09_PT009H.grib2 2026-05-01 14:59 429K
20260501T12Z_MSC_RDPS_WindU_AGL-120m_RLatLon0.09_PT009H.grib2 2026-05-01 14:59 527K
20260501T12Z_MSC_RDPS_WindU_AGL-40m_RLatLon0.09_PT009H.grib2 2026-05-01 14:59 530K
20260501T12Z_MSC_RDPS_WindU_AGL-80m_RLatLon0.09_PT009H.grib2 2026-05-01 14:59 529K
20260501T12Z_MSC_RDPS_WindU_IsbL-0001_RLatLon0.09_PT009H.grib2 2026-05-01 14:59 239K
20260501T12Z_MSC_RDPS_WindU_IsbL-0005_RLatLon0.09_PT009H.grib2 2026-05-01 14:59 277K
20260501T12Z_MSC_RDPS_WindU_IsbL-0010_RLatLon0.09_PT009H.grib2 2026-05-01 14:59 286K
20260501T12Z_MSC_RDPS_WindU_IsbL-0020_RLatLon0.09_PT009H.grib2 2026-05-01 14:59 302K
20260501T12Z_MSC_RDPS_WindU_IsbL-0030_RLatLon0.09_PT009H.grib2 2026-05-01 14:59 303K
20260501T12Z_MSC_RDPS_WindU_IsbL-0050_RLatLon0.09_PT009H.grib2 2026-05-01 14:59 332K
20260501T12Z_MSC_RDPS_WindU_IsbL-0100_RLatLon0.09_PT009H.grib2 2026-05-01 14:59 426K
20260501T12Z_MSC_RDPS_WindU_IsbL-0150_RLatLon0.09_PT009H.grib2 2026-05-01 14:59 396K
20260501T12Z_MSC_RDPS_WindU_IsbL-0175_RLatLon0.09_PT009H.grib2 2026-05-01 14:59 421K
20260501T12Z_MSC_RDPS_WindU_IsbL-0200_RLatLon0.09_PT009H.grib2 2026-05-01 14:59 337K
20260501T12Z_MSC_RDPS_WindU_IsbL-0225_RLatLon0.09_PT009H.grib2 2026-05-01 14:59 341K
20260501T12Z_MSC_RDPS_WindU_IsbL-0250_RLatLon0.09_PT009H.grib2 2026-05-01 14:59 340K
20260501T12Z_MSC_RDPS_WindU_IsbL-0275_RLatLon0.09_PT009H.grib2 2026-05-01 14:59 354K
20260501T12Z_MSC_RDPS_WindU_IsbL-0300_RLatLon0.09_PT009H.grib2 2026-05-01 14:59 349K
20260501T12Z_MSC_RDPS_WindU_IsbL-0350_RLatLon0.09_PT009H.grib2 2026-05-01 14:59 356K
20260501T12Z_MSC_RDPS_WindU_IsbL-0400_RLatLon0.09_PT009H.grib2 2026-05-01 14:59 461K
20260501T12Z_MSC_RDPS_WindU_IsbL-0450_RLatLon0.09_PT009H.grib2 2026-05-01 14:59 464K
20260501T12Z_MSC_RDPS_WindU_IsbL-0500_RLatLon0.09_PT009H.grib2 2026-05-01 14:59 468K
20260501T12Z_MSC_RDPS_WindU_IsbL-0550_RLatLon0.09_PT009H.grib2 2026-05-01 14:59 471K
20260501T12Z_MSC_RDPS_WindU_IsbL-0600_RLatLon0.09_PT009H.grib2 2026-05-01 14:59 482K
20260501T12Z_MSC_RDPS_WindU_IsbL-0650_RLatLon0.09_PT009H.grib2 2026-05-01 14:59 485K
20260501T12Z_MSC_RDPS_WindU_IsbL-0700_RLatLon0.09_PT009H.grib2 2026-05-01 14:59 509K
20260501T12Z_MSC_RDPS_WindU_IsbL-0750_RLatLon0.09_PT009H.grib2 2026-05-01 14:59 536K
20260501T12Z_MSC_RDPS_WindU_IsbL-0800_RLatLon0.09_PT009H.grib2 2026-05-01 14:59 572K
20260501T12Z_MSC_RDPS_WindU_IsbL-0850_RLatLon0.09_PT009H.grib2 2026-05-01 14:59 618K
20260501T12Z_MSC_RDPS_WindU_IsbL-0875_RLatLon0.09_PT009H.grib2 2026-05-01 14:59 632K
20260501T12Z_MSC_RDPS_WindU_IsbL-0900_RLatLon0.09_PT009H.grib2 2026-05-01 14:59 643K
20260501T12Z_MSC_RDPS_WindU_IsbL-0925_RLatLon0.09_PT009H.grib2 2026-05-01 14:59 652K
20260501T12Z_MSC_RDPS_WindU_IsbL-0950_RLatLon0.09_PT009H.grib2 2026-05-01 14:59 649K
20260501T12Z_MSC_RDPS_WindU_IsbL-0970_RLatLon0.09_PT009H.grib2 2026-05-01 14:59 648K
20260501T12Z_MSC_RDPS_WindU_IsbL-0985_RLatLon0.09_PT009H.grib2 2026-05-01 14:59 784K
20260501T12Z_MSC_RDPS_WindU_IsbL-1000_RLatLon0.09_PT009H.grib2 2026-05-01 14:59 780K
20260501T12Z_MSC_RDPS_WindU_IsbL-1015_RLatLon0.09_PT009H.grib2 2026-05-01 14:59 819K
20260501T12Z_MSC_RDPS_WindV_AGL-10m_RLatLon0.09_PT009H.grib2 2026-05-01 14:59 426K
20260501T12Z_MSC_RDPS_WindV_AGL-120m_RLatLon0.09_PT009H.grib2 2026-05-01 14:59 523K
20260501T12Z_MSC_RDPS_WindV_AGL-40m_RLatLon0.09_PT009H.grib2 2026-05-01 14:59 525K
20260501T12Z_MSC_RDPS_WindV_AGL-80m_RLatLon0.09_PT009H.grib2 2026-05-01 14:59 524K
20260501T12Z_MSC_RDPS_WindV_IsbL-0001_RLatLon0.09_PT009H.grib2 2026-05-01 14:59 287K
20260501T12Z_MSC_RDPS_WindV_IsbL-0005_RLatLon0.09_PT009H.grib2 2026-05-01 14:59 278K
20260501T12Z_MSC_RDPS_WindV_IsbL-0010_RLatLon0.09_PT009H.grib2 2026-05-01 14:59 288K
20260501T12Z_MSC_RDPS_WindV_IsbL-0020_RLatLon0.09_PT009H.grib2 2026-05-01 14:59 305K
20260501T12Z_MSC_RDPS_WindV_IsbL-0030_RLatLon0.09_PT009H.grib2 2026-05-01 14:59 305K
20260501T12Z_MSC_RDPS_WindV_IsbL-0050_RLatLon0.09_PT009H.grib2 2026-05-01 14:59 331K
20260501T12Z_MSC_RDPS_WindV_IsbL-0100_RLatLon0.09_PT009H.grib2 2026-05-01 14:59 422K
20260501T12Z_MSC_RDPS_WindV_IsbL-0150_RLatLon0.09_PT009H.grib2 2026-05-01 14:59 395K
20260501T12Z_MSC_RDPS_WindV_IsbL-0175_RLatLon0.09_PT009H.grib2 2026-05-01 14:59 418K
20260501T12Z_MSC_RDPS_WindV_IsbL-0200_RLatLon0.09_PT009H.grib2 2026-05-01 14:59 336K
20260501T12Z_MSC_RDPS_WindV_IsbL-0225_RLatLon0.09_PT009H.grib2 2026-05-01 14:59 338K
20260501T12Z_MSC_RDPS_WindV_IsbL-0250_RLatLon0.09_PT009H.grib2 2026-05-01 14:59 337K
20260501T12Z_MSC_RDPS_WindV_IsbL-0275_RLatLon0.09_PT009H.grib2 2026-05-01 14:59 350K
20260501T12Z_MSC_RDPS_WindV_IsbL-0300_RLatLon0.09_PT009H.grib2 2026-05-01 14:59 346K
20260501T12Z_MSC_RDPS_WindV_IsbL-0350_RLatLon0.09_PT009H.grib2 2026-05-01 14:59 452K
20260501T12Z_MSC_RDPS_WindV_IsbL-0400_RLatLon0.09_PT009H.grib2 2026-05-01 14:59 456K
20260501T12Z_MSC_RDPS_WindV_IsbL-0450_RLatLon0.09_PT009H.grib2 2026-05-01 14:59 459K
20260501T12Z_MSC_RDPS_WindV_IsbL-0500_RLatLon0.09_PT009H.grib2 2026-05-01 14:59 462K
20260501T12Z_MSC_RDPS_WindV_IsbL-0550_RLatLon0.09_PT009H.grib2 2026-05-01 14:59 467K
20260501T12Z_MSC_RDPS_WindV_IsbL-0600_RLatLon0.09_PT009H.grib2 2026-05-01 14:59 461K
20260501T12Z_MSC_RDPS_WindV_IsbL-0650_RLatLon0.09_PT009H.grib2 2026-05-01 14:59 481K
20260501T12Z_MSC_RDPS_WindV_IsbL-0700_RLatLon0.09_PT009H.grib2 2026-05-01 14:59 504K
20260501T12Z_MSC_RDPS_WindV_IsbL-0750_RLatLon0.09_PT009H.grib2 2026-05-01 14:59 530K
20260501T12Z_MSC_RDPS_WindV_IsbL-0800_RLatLon0.09_PT009H.grib2 2026-05-01 14:59 566K
20260501T12Z_MSC_RDPS_WindV_IsbL-0850_RLatLon0.09_PT009H.grib2 2026-05-01 14:59 613K
20260501T12Z_MSC_RDPS_WindV_IsbL-0875_RLatLon0.09_PT009H.grib2 2026-05-01 14:59 629K
20260501T12Z_MSC_RDPS_WindV_IsbL-0900_RLatLon0.09_PT009H.grib2 2026-05-01 14:59 639K
20260501T12Z_MSC_RDPS_WindV_IsbL-0925_RLatLon0.09_PT009H.grib2 2026-05-01 14:59 649K
20260501T12Z_MSC_RDPS_WindV_IsbL-0950_RLatLon0.09_PT009H.grib2 2026-05-01 14:59 784K
20260501T12Z_MSC_RDPS_WindV_IsbL-0970_RLatLon0.09_PT009H.grib2 2026-05-01 14:59 783K
20260501T12Z_MSC_RDPS_WindV_IsbL-0985_RLatLon0.09_PT009H.grib2 2026-05-01 14:59 779K
20260501T12Z_MSC_RDPS_WindV_IsbL-1000_RLatLon0.09_PT009H.grib2 2026-05-01 14:59 775K
20260501T12Z_MSC_RDPS_WindV_IsbL-1015_RLatLon0.09_PT009H.grib2 2026-05-01 14:59 813K